SKYSAT-A

Last updated on Sat Aug 15 2026 00:02:45 GMT+0000 (Coordinated Universal Time)

1 39418U 13066C 26226.38617654 .00001515 00000+0 88305-4 0 9998 2 39418 97.3776 273.9255 0022911 111.5403 248.8273 15.13255848697287
UTC large
Height (km)
Speed (km/s)
/
Latitude / Longitude
Inclination (degrees)
Orbital Period (minutes)
Azimuth
Elevation
Range (km)
Doppler Factor

Next 0 passes for location: London (51.5072 / 0.1276)

No passes found over London.
SKYSAT-A